| time (UTC) | temp C | wind direction | speed KPH | gust KPH | rain 1hr cm | rain 24hr cm | rain mn cm | humidity % | barometer mb |
| 20260505072703 | 18 | 66 | 1.6 | 9.7 | 0.00 | 0.00 | 0.00 | 62 | 1005.7 |
| 20260505072203 | 18 | 73 | 1.6 | 9.7 | 0.00 | 0.00 | 0.00 | 61 | 1005.6 |
| 20260505071703 | 18 | 74 | 1.6 | 8.0 | 0.00 | 0.00 | 0.00 | 61 | 1005.6 |
| 20260505070703 | 18 | 79 | 1.6 | 9.7 | 0.00 | 0.00 | 0.00 | 61 | 1005.7 |
| 20260505070204 | 18 | 77 | 1.6 | 8.0 | 0.00 | 0.00 | 0.00 | 61 | 1005.7 |
| 20260505065704 | 18 | 71 | 0.0 | 4.8 | 0.00 | 0.00 | 0.00 | 61 | 1005.6 |
| 20260505065203 | 18 | 72 | 0.0 | 4.8 | 0.00 | 0.00 | 0.00 | 61 | 1005.5 |
| 20260505064704 | 18 | 66 | 1.6 | 14.5 | 0.00 | 0.00 | 0.00 | 61 | 1005.5 |
| 20260505064203 | 18 | 72 | 3.2 | 8.0 | 0.00 | 0.00 | 0.00 | 61 | 1005.4 |
| 20260505063703 | 18 | 65 | 1.6 | 8.0 | 0.00 | 0.00 | 0.00 | 61 | 1005.5 |
| 20260505063203 | 18 | 65 | 1.6 | 9.7 | 0.00 | 0.00 | 0.00 | 61 | 1005.5 |
| 20260505062704 | 18 | 74 | 1.6 | 4.8 | 0.00 | 0.00 | 0.00 | 61 | 1005.6 |
| 20260505062203 | 18 | 90 | 4.8 | 11.3 | 0.00 | 0.00 | 0.00 | 61 | 1005.6 |
| 20260505061704 | 18 | 65 | 1.6 | 4.8 | 0.00 | 0.00 | 0.00 | 60 | 1005.6 |
| 20260505061204 | 18 | 74 | 1.6 | 8.0 | 0.00 | 0.00 | 0.00 | 60 | 1005.5 |
| 20260505060703 | 19 | 73 | 1.6 | 8.0 | 0.00 | 0.00 | 0.00 | 60 | 1005.4 |
| 20260505060203 | 19 | 58 | 1.6 | 4.8 | 0.00 | 0.00 | 0.00 | 60 | 1005.3 |
| 20260505055704 | 19 | 69 | 0.0 | 3.2 | 0.00 | 0.00 | 0.00 | 60 | 1005.2 |
| 20260505054703 | 19 | 62 | 1.6 | 9.7 | 0.00 | 0.00 | 0.00 | 59 | 1005.1 |
| 20260505054204 | 20 | 58 | 1.6 | 9.7 | 0.00 | 0.00 | 0.00 | 59 | 1005.0 |
| 20260505053703 | 20 | 66 | 3.2 | 12.9 | 0.00 | 0.00 | 0.00 | 58 | 1004.9 |
| 20260505052703 | 20 | 57 | 4.8 | 16.1 | 0.00 | 0.00 | 0.00 | 58 | 1004.9 |
| 20260505052203 | 20 | 58 | 1.6 | 11.3 | 0.00 | 0.00 | 0.00 | 58 | 1004.8 |
| 20260505051703 | 20 | 54 | 3.2 | 11.3 | 0.00 | 0.00 | 0.00 | 58 | 1004.8 |
| 20260505050703 | 20 | 59 | 3.2 | 11.3 | 0.00 | 0.00 | 0.00 | 58 | 1005.1 |
| 20260505050203 | 20 | 64 | 3.2 | 12.9 | 0.00 | 0.00 | 0.00 | 58 | 1005.2 |
| 20260505040703 | 20 | 48 | 0.0 | 11.3 | 0.00 | 0.00 | 0.00 | 58 | 1005.6 |
| 20260505040203 | 20 | 52 | 1.6 | 8.0 | 0.00 | 0.00 | 0.00 | 59 | 1005.7 |
| 20260505035204 | 20 | 40 | 1.6 | 9.7 | 0.00 | 0.00 | 0.00 | 59 | 1005.7 |
| 20260505034204 | 20 | 52 | 1.6 | 8.0 | 0.00 | 0.00 | 0.00 | 59 | 1005.7 |
| 20260505033703 | 20 | 52 | 3.2 | 9.7 | 0.00 | 0.00 | 0.00 | 58 | 1005.6 |
| 20260505033203 | 20 | 56 | 1.6 | 11.3 | 0.00 | 0.00 | 0.00 | 58 | 1005.6 |
| 20260505032703 | 20 | 54 | 3.2 | 11.3 | 0.00 | 0.00 | 0.00 | 58 | 1005.6 |
| 20260505032203 | 20 | 56 | 1.6 | 9.7 | 0.00 | 0.00 | 0.00 | 59 | 1005.6 |
| 20260505031703 | 20 | 55 | 3.2 | 11.3 | 0.00 | 0.00 | 0.00 | 59 | 1005.6 |
| 20260505030205 | 20 | 51 | 3.2 | 12.9 | 0.00 | 0.00 | 0.00 | 59 | 1005.5 |
| 20260505025703 | 20 | 55 | 1.6 | 8.0 | 0.00 | 0.00 | 0.00 | 59 | 1005.4 |
| 20260505024703 | 20 | 51 | 1.6 | 8.0 | 0.00 | 0.00 | 0.00 | 59 | 1005.2 |
| 20260505024203 | 20 | 51 | 1.6 | 11.3 | 0.00 | 0.00 | 0.00 | 59 | 1005.2 |
| 20260505023704 | 20 | 53 | 1.6 | 11.3 | 0.00 | 0.00 | 0.00 | 59 | 1005.1 |
| 20260505023203 | 20 | 50 | 1.6 | 8.0 | 0.00 | 0.00 | 0.00 | 59 | 1005.1 |
| 20260505022704 | 20 | 45 | 0.0 | 8.0 | 0.00 | 0.00 | 0.00 | 59 | 1005.0 |
| 20260505022204 | 20 | 49 | 1.6 | 11.3 | 0.00 | 0.00 | 0.00 | 59 | 1005.0 |
| 20260505020703 | 21 | 38 | 0.0 | 3.2 | 0.00 | 0.00 | 0.00 | 58 | 1004.8 |
| 20260505020203 | 21 | 42 | 0.0 | 3.2 | 0.00 | 0.00 | 0.00 | 58 | 1004.7 |
| 20260505015703 | 21 | 39 | 0.0 | 4.8 | 0.00 | 0.00 | 0.00 | 58 | 1004.7 |
| 20260505015203 | 21 | 40 | 0.0 | 0.0 | 0.00 | 0.00 | 0.00 | 57 | 1004.6 |
| 20260505014704 | 21 | 33 | 0.0 | 3.2 | 0.00 | 0.00 | 0.00 | 57 | 1004.6 |
| 20260505013704 | 21 | 42 | 0.0 | 4.8 | 0.00 | 0.00 | 0.00 | 57 | 1004.5 |
| 20260505013203 | 21 | 41 | 0.0 | 4.8 | 0.00 | 0.00 | 0.00 | 56 | 1004.5 |
| 20260505012704 | 21 | 23 | 1.6 | 9.7 | 0.00 | 0.00 | 0.00 | 56 | 1004.5 |
| 20260505012204 | 21 | 43 | 0.0 | 1.6 | 0.00 | 0.00 | 0.00 | 56 | 1004.4 |
| 20260505011204 | 21 | 42 | 0.0 | 3.2 | 0.00 | 0.00 | 0.00 | 55 | 1004.4 |
| 20260505010703 | 21 | 29 | 0.0 | 1.6 | 0.00 | 0.00 | 0.00 | 55 | 1004.3 |
| 20260505010203 | 22 | 38 | 1.6 | 9.7 | 0.00 | 0.00 | 0.00 | 54 | 1004.4 |
| 20260505005204 | 22 | 31 | 0.0 | 3.2 | 0.00 | 0.00 | 0.00 | 53 | 1004.4 |
| 20260505004704 | 22 | 30 | 0.0 | 4.8 | 0.00 | 0.00 | 0.00 | 53 | 1004.3 |
| 20260505004204 | 22 | 32 | 0.0 | 4.8 | 0.00 | 0.00 | 0.00 | 52 | 1004.3 |
| 20260505003704 | 22 | 31 | 0.0 | 8.0 | 0.00 | 0.00 | 0.00 | 52 | 1004.3 |
| 20260505003203 | 22 | 27 | 1.6 | 9.7 | 0.00 | 0.00 | 0.00 | 52 | 1004.3 |
| 20260505002703 | 22 | 31 | 0.0 | 1.6 | 0.00 | 0.00 | 0.00 | 51 | 1004.3 |
| 20260505002204 | 22 | 26 | 1.6 | 9.7 | 0.00 | 0.00 | 0.00 | 50 | 1004.4 |
| 20260505001703 | 23 | 23 | 1.6 | 4.8 | 0.00 | 0.00 | 0.00 | 50 | 1004.4 |
| 20260505001204 | 23 | 28 | 1.6 | 8.0 | 0.00 | 0.00 | 0.00 | 50 | 1004.4 |
| 20260505000703 | 23 | 24 | 1.6 | 4.8 | 0.00 | 0.00 | 0.00 | 49 | 1004.5 |
| 20260505000204 | 23 | 24 | 1.6 | 9.7 | 0.00 | 0.00 | 0.00 | 49 | 1004.6 |
| 20260504234704 | 23 | 24 | 9.7 | 16.1 | 0.00 | 0.00 | 0.00 | 48 | 1004.7 |
| 20260504233703 | 23 | 33 | 4.8 | 19.3 | 0.00 | 0.00 | 0.00 | 47 | 1004.9 |
| 20260504232703 | 23 | 147 | 9.7 | 32.2 | 0.00 | 0.00 | 0.00 | 45 | 1005.0 |
| 20260504232204 | 24 | 164 | 11.3 | 32.2 | 0.00 | 0.00 | 0.00 | 45 | 1005.0 |
| 20260504231704 | 24 | 205 | 8.0 | 32.2 | 0.00 | 0.00 | 0.00 | 46 | 1004.9 |
| 20260504231203 | 24 | 188 | 8.0 | 16.1 | 0.00 | 0.00 | 0.00 | 46 | 1005.0 |
| 20260504230204 | 24 | 170 | 8.0 | 19.3 | 0.00 | 0.00 | 0.00 | 46 | 1005.0 |
| 20260504225703 | 24 | 200 | 9.7 | 19.3 | 0.00 | 0.00 | 0.00 | 46 | 1005.1 |
| 20260504225204 | 24 | 187 | 9.7 | 20.9 | 0.00 | 0.00 | 0.00 | 46 | 1005.1 |
| 20260504224703 | 24 | 132 | 8.0 | 20.9 | 0.00 | 0.00 | 0.00 | 46 | 1005.1 |
| 20260504224203 | 24 | 28 | 11.3 | 22.5 | 0.00 | 0.00 | 0.00 | 47 | 1005.2 |
| 20260504223703 | 24 | 220 | 6.4 | 19.3 | 0.00 | 0.00 | 0.00 | 50 | 1005.2 |
| 20260504223203 | 24 | 148 | 1.6 | 8.0 | 0.00 | 0.00 | 0.00 | 52 | 1005.2 |
| 20260504222203 | 24 | 90 | 1.6 | 9.7 | 0.00 | 0.00 | 0.00 | 51 | 1005.3 |
| 20260504221704 | 24 | 153 | 1.6 | 9.7 | 0.00 | 0.00 | 0.00 | 51 | 1005.3 |
| 20260504221203 | 24 | 132 | 1.6 | 9.7 | 0.00 | 0.00 | 0.00 | 52 | 1005.3 |
| 20260504220703 | 24 | 111 | 1.6 | 4.8 | 0.00 | 0.00 | 0.00 | 50 | 1005.1 |
| 20260504215704 | 24 | 109 | 1.6 | 4.8 | 0.00 | 0.00 | 0.00 | 49 | 1005.5 |
| 20260504215203 | 24 | 134 | 4.8 | 12.9 | 0.00 | 0.00 | 0.00 | 47 | 1005.6 |
| 20260504214703 | 24 | 138 | 1.6 | 4.8 | 0.00 | 0.00 | 0.00 | 49 | 1005.7 |
| 20260504214203 | 24 | 45 | 4.8 | 12.9 | 0.00 | 0.00 | 0.00 | 48 | 1005.9 |
| 20260504213203 | 24 | 103 | 3.2 | 11.3 | 0.00 | 0.00 | 0.00 | 47 | 1005.8 |
| 20260504212703 | 24 | 138 | 4.8 | 11.3 | 0.00 | 0.00 | 0.00 | 47 | 1006.0 |
| 20260504212203 | 24 | 223 | 6.4 | 12.9 | 0.00 | 0.00 | 0.00 | 47 | 1006.1 |
| 20260504211703 | 24 | 164 | 4.8 | 14.5 | 0.00 | 0.00 | 0.00 | 47 | 1006.0 |
| 20260504211205 | 24 | 184 | 4.8 | 14.5 | 0.00 | 0.00 | 0.00 | 49 | 1006.1 |
| 20260504210703 | 24 | 147 | 8.0 | 19.3 | 0.00 | 0.00 | 0.00 | 49 | 1006.2 |
| 20260504210203 | 24 | 245 | 4.8 | 11.3 | 0.00 | 0.00 | 0.00 | 50 | 1006.2 |
| 20260504205705 | 24 | 210 | 4.8 | 12.9 | 0.00 | 0.00 | 0.00 | 50 | 1006.2 |
| 20260504205204 | 24 | 221 | 8.0 | 14.5 | 0.00 | 0.00 | 0.00 | 50 | 1006.3 |
| 20260504204204 | 23 | 175 | 4.8 | 11.3 | 0.00 | 0.00 | 0.00 | 50 | 1006.4 |
| 20260504203703 | 23 | 190 | 8.0 | 22.5 | 0.00 | 0.00 | 0.00 | 50 | 1006.6 |
| 20260504203203 | 23 | 203 | 8.0 | 19.3 | 0.00 | 0.00 | 0.00 | 51 | 1006.7 |
| 20260504202704 | 23 | 203 | 8.0 | 12.9 | 0.00 | 0.00 | 0.00 | 51 | 1006.7 |
| 20260504202203 | 23 | 221 | 3.2 | 14.5 | 0.00 | 0.00 | 0.00 | 51 | 1006.7 |
| 20260504201703 | 23 | 216 | 4.8 | 16.1 | 0.00 | 0.00 | 0.00 | 52 | 1006.8 |
| 20260504201204 | 23 | 239 | 3.2 | 16.1 | 0.00 | 0.00 | 0.00 | 52 | 1007.0 |
| 20260504200703 | 23 | 226 | 8.0 | 19.3 | 0.00 | 0.00 | 0.00 | 52 | 1006.9 |
| 20260504200203 | 23 | 203 | 3.2 | 9.7 | 0.00 | 0.00 | 0.00 | 55 | 1007.0 |
| 20260504195704 | 22 | 220 | 8.0 | 19.3 | 0.00 | 0.00 | 0.00 | 53 | 1006.9 |
| 20260504195203 | 22 | 204 | 8.0 | 19.3 | 0.00 | 0.00 | 0.00 | 54 | 1007.1 |
| 20260504194203 | 22 | 200 | 3.2 | 12.9 | 0.00 | 0.00 | 0.00 | 57 | 1007.3 |
| 20260504193704 | 22 | 212 | 3.2 | 12.9 | 0.00 | 0.00 | 0.00 | 59 | 1007.4 |
| 20260504192203 | 21 | 175 | 3.2 | 8.0 | 0.00 | 0.00 | 0.00 | 60 | 1007.7 |
| 20260504191704 | 21 | 236 | 4.8 | 9.7 | 0.00 | 0.00 | 0.00 | 60 | 1007.7 |
| 20260504191204 | 21 | 225 | 3.2 | 9.7 | 0.00 | 0.00 | 0.00 | 61 | 1008.1 |
| 20260504190205 | 21 | 210 | 3.2 | 11.3 | 0.00 | 0.00 | 0.00 | 61 | 1008.1 |
| 20260504185704 | 20 | 177 | 1.6 | 9.7 | 0.00 | 0.00 | 0.00 | 62 | 1008.2 |
| 20260504184705 | 20 | 209 | 3.2 | 12.9 | 0.00 | 0.00 | 0.00 | 61 | 1008.3 |
| 20260504183703 | 21 | 213 | 3.2 | 12.9 | 0.00 | 0.00 | 0.00 | 60 | 1008.3 |
| 20260504183204 | 21 | 211 | 8.0 | 19.3 | 0.00 | 0.00 | 0.00 | 59 | 1008.2 |
| 20260504182704 | 21 | 217 | 6.4 | 19.3 | 0.00 | 0.00 | 0.00 | 59 | 1008.2 |
| 20260504182204 | 21 | 189 | 8.0 | 14.5 | 0.00 | 0.00 | 0.00 | 59 | 1008.1 |
| 20260504181204 | 21 | 209 | 4.8 | 11.3 | 0.00 | 0.00 | 0.00 | 58 | 1007.9 |
| 20260504180703 | 21 | 200 | 4.8 | 12.9 | 0.00 | 0.00 | 0.00 | 58 | 1007.8 |
| 20260504174704 | 21 | 207 | 9.7 | 20.9 | 0.00 | 0.00 | 0.00 | 57 | 1007.4 |
| 20260504174203 | 21 | 212 | 9.7 | 22.5 | 0.00 | 0.00 | 0.00 | 57 | 1007.4 |
| 20260504173703 | 21 | 214 | 11.3 | 22.5 | 0.00 | 0.00 | 0.00 | 58 | 1007.4 |
| 20260504173203 | 21 | 214 | 8.0 | 20.9 | 0.00 | 0.00 | 0.00 | 60 | 1007.5 |
| 20260504172703 | 20 | 207 | 4.8 | 14.5 | 0.00 | 0.00 | 0.00 | 60 | 1007.7 |
| 20260504172204 | 20 | 218 | 6.4 | 11.3 | 0.00 | 0.00 | 0.00 | 61 | 1007.6 |
| 20260504171704 | 20 | 216 | 4.8 | 14.5 | 0.00 | 0.00 | 0.00 | 62 | 1007.6 |
| 20260504171204 | 20 | 199 | 1.6 | 3.2 | 0.00 | 0.00 | 0.00 | 62 | 1007.1 |
| 20260504170204 | 20 | 163 | 3.2 | 14.5 | 0.00 | 0.00 | 0.00 | 61 | 1007.4 |
| 20260504160204 | 19 | 13 | 1.6 | 4.8 | 0.00 | 0.00 | 0.00 | 61 | 1008.3 |
| 20260504150705 | 17 | 174 | 1.6 | 4.8 | 0.00 | 0.00 | 0.00 | 65 | 1008.5 |
| 20260504150203 | 17 | 192 | 1.6 | 8.0 | 0.00 | 0.00 | 0.00 | 64 | 1008.6 |
| 20260504141205 | 16 | 211 | 1.6 | 11.3 | 0.00 | 0.00 | 0.00 | 66 | 1008.6 |
| 20260504140704 | 15 | 246 | 1.6 | 11.3 | 0.00 | 0.00 | 0.00 | 68 | 1008.7 |
| 20260504140203 | 15 | 190 | 1.6 | 9.7 | 0.00 | 0.00 | 0.00 | 67 | 1008.7 |
| 20260504130205 | 13 | 84 | 1.6 | 4.8 | 0.00 | 0.00 | 0.00 | 70 | 1009.1 |
| 20260504120203 | 12 | 95 | 3.2 | 9.7 | 0.00 | 0.00 | 0.00 | 70 | 1009.2 |
| 20260504110204 | 11 | 117 | 1.6 | 8.0 | 0.00 | 0.00 | 0.00 | 69 | 1008.9 |
| 20260504081704 | 11 | 111 | 0.0 | 0.0 | 0.00 | 0.00 | 0.00 | 63 | 1010.0 |
| 20260504081204 | 11 | 104 | 0.0 | 0.0 | 0.00 | 0.00 | 0.00 | 63 | 1010.0 |
| 20260504080703 | 11 | 98 | 0.0 | 0.0 | 0.00 | 0.00 | 0.00 | 63 | 1010.1 |